{"data":{"norad_id":66346,"epoch":"2026-05-25T00:59:54.633120Z","epoch_age_seconds":71759,"freshness":"FRESH","line1":"1 66346U 25253AD  26145.04160455  .00012552  00000+0  46475-3 0  9998","line2":"2 66346  42.9978 141.1237 0000905 257.1518 102.9232 15.27589397 31928","mean_motion":15.27589397,"eccentricity":9.05e-5,"inclination_deg":42.9978,"raan_deg":141.1237,"arg_perigee_deg":257.1518,"mean_anomaly_deg":102.9232,"bstar":0.00046475,"rev_number":3192,"period_min":94.26616882966,"perigee_km":482.40002339013,"apogee_km":483.64189298056,"semimajor_km":6861.1579581853,"source":"CELESTRAK","updated_at":"2026-05-25T13:38:21.172643Z"}}